Location: Ash Swamp
(41.5170°N, 74.6157°W)
Time: 02:34:54
(UTC+00:00)

CZ-4C R/B - Pass Details

Date: 14 July 2020
Orbit: 632 x 1370 km, 63.4° (Epoch: 14 August)

Event Time Altitude Azimuth Distance (km) Brightness Sun altitude
Rises 05:32:14 0° 315° (NW) 3,988 6.2 -26.6°
Reaches altitude 10° 05:35:07 10° 306° (NW) 3,125 5.4 -26.5°
Maximum altitude 05:41:40 32° 248° (WSW) 2,078 3.9 -26.3°
Enters shadow 05:41:59 32° 243° (WSW) 2,087 3.9 -26.3°
